• In Belarus
  • List of Countries
  • For 7 days
  • Water Temperature
  • Satellite Maps
  • Weather Map
  • Weather Widgets
  • user-avatar
    Login

    Hourly Weather Amar

    Today, 16 January, Wednesday

    Time Temperature Precipitation Wind Pressure Humidity
    00:00 +23°C° 0 mm 5 mps 760 mmHg 68%
    01:00 +23°C° 0 mm 5 mps 760 mmHg 69%
    02:00 +23°C° 0 mm 5 mps 759 mmHg 70%
    03:00 +22°C° 0 mm 5 mps 759 mmHg 75%
    04:00 +22°C° 0 mm 5 mps 759 mmHg 76%
    05:00 +22°C° 0 mm 5 mps 759 mmHg 76%
    06:00 +22°C° 0 mm 5 mps 759 mmHg 77%
    07:00 +23°C° 0 mm 5 mps 760 mmHg 74%
    08:00 +23°C° 0 mm 4 mps 760 mmHg 70%
    09:00 +25°C° 0 mm 4 mps 760 mmHg 67%
    10:00 +26°C° 0 mm 4 mps 759 mmHg 63%
    11:00 +26°C° 0 mm 3 mps 759 mmHg 58%
    12:00 +27°C° 0 mm 3 mps 759 mmHg 54%
    13:00 +27°C° 0 mm 3 mps 758 mmHg 51%
    14:00 +27°C° 0 mm 3 mps 758 mmHg 48%
    15:00 +28°C° 0 mm 3 mps 757 mmHg 45%
    16:00 +27°C° 0 mm 3 mps 757 mmHg 47%
    17:00 +27°C° 0 mm 3 mps 757 mmHg 49%
    18:00 +26°C° 0 mm 3 mps 757 mmHg 52%
    19:00 +26°C° 0 mm 5 mps 757 mmHg 56%
    20:00 +24°C° 0 mm 6 mps 757 mmHg 60%
    21:00 +24°C° 0 mm 7 mps 757 mmHg 65%
    22:00 +24°C° 0 mm 8 mps 757 mmHg 65%
    23:00 +24°C° 0 mm 8 mps 757 mmHg 66%

    Tomorrow, 17 January, Thursday

    Time Temperature Precipitation Wind Pressure Humidity
    00:00 +24°C° 0 mm 8 mps 757 mmHg 67%
    01:00 +23°C° 0 mm 8 mps 756 mmHg 69%
    02:00 +23°C° 0 mm 8 mps 756 mmHg 71%
    03:00 +23°C° 0 mm 8 mps 755 mmHg 73%
    04:00 +23°C° 0 mm 7 mps 756 mmHg 74%
    05:00 +23°C° 0 mm 7 mps 756 mmHg 75%
    06:00 +23°C° 0 mm 7 mps 756 mmHg 76%
    07:00 +23°C° 0 mm 7 mps 756 mmHg 70%
    08:00 +24°C° 0 mm 6 mps 757 mmHg 63%
    09:00 +24°C° 0 mm 6 mps 757 mmHg 57%
    10:00 +27°C° 0 mm 7 mps 757 mmHg 48%
    11:00 +28°C° 0 mm 7 mps 757 mmHg 39%
    12:00 +30°C° 0 mm 7 mps 757 mmHg 31%
    13:00 +28°C° 0 mm 9 mps 757 mmHg 30%
    14:00 +26°C° 0 mm 11 mps 757 mmHg 30%
    15:00 +23°C° 0 mm 13 mps 758 mmHg 30%
    16:00 +23°C° 0 mm 12 mps 758 mmHg 31%
    17:00 +22°C° 0 mm 11 mps 759 mmHg 33%
    18:00 +22°C° 0 mm 11 mps 760 mmHg 35%
    19:00 +21°C° 0 mm 10 mps 760 mmHg 35%
    20:00 +19°C° 0 mm 10 mps 761 mmHg 34%
    21:00 +19°C° 0 mm 10 mps 761 mmHg 34%
    22:00 +18°C° 0 mm 9 mps 761 mmHg 36%
    23:00 +18°C° 0 mm 9 mps 761 mmHg 37%

    Day after tomorrow, 18 January, Friday

    Time Temperature Precipitation Wind Pressure Humidity
    00:00 +18°C° 0 mm 9 mps 761 mmHg 39%
    01:00 +17°C° 0 mm 9 mps 761 mmHg 40%
    02:00 +17°C° 0 mm 9 mps 761 mmHg 40%
    03:00 +17°C° 0 mm 9 mps 761 mmHg 41%
    04:00 +17°C° 0 mm 9 mps 761 mmHg 42%
    05:00 +17°C° 0 mm 9 mps 762 mmHg 43%
    06:00 +16°C° 0 mm 9 mps 762 mmHg 44%
    07:00 +17°C° 0 mm 9 mps 762 mmHg 44%
    08:00 +17°C° 0 mm 9 mps 763 mmHg 44%
    09:00 +17°C° 0 mm 8 mps 763 mmHg 44%
    10:00 +18°C° 0 mm 8 mps 763 mmHg 44%
    11:00 +20°C° 0 mm 8 mps 762 mmHg 44%
    12:00 +20°C° 0 mm 8 mps 762 mmHg 44%
    13:00 +20°C° 0 mm 8 mps 762 mmHg 43%
    14:00 +20°C° 0 mm 8 mps 761 mmHg 43%
    15:00 +20°C° 0 mm 7 mps 761 mmHg 43%
    16:00 +20°C° 0 mm 7 mps 761 mmHg 45%
    17:00 +18°C° 0 mm 7 mps 762 mmHg 47%
    18:00 +18°C° 0 mm 7 mps 762 mmHg 50%
    19:00 +18°C° 0 mm 7 mps 762 mmHg 50%
    20:00 +17°C° 0 mm 7 mps 762 mmHg 51%
    21:00 +17°C° 0 mm 7 mps 762 mmHg 52%
    22:00 +17°C° 0 mm 7 mps 762 mmHg 52%
    23:00 +17°C° 0 mm 7 mps 762 mmHg 51%

    19 January, Saturday

    Time Temperature Precipitation Wind Pressure Humidity
    00:00 +17°C° 0 mm 7 mps 762 mmHg 51%
    01:00 +17°C° 0 mm 7 mps 762 mmHg 50%
    02:00 +17°C° 0 mm 8 mps 762 mmHg 49%
    03:00 +17°C° 0 mm 8 mps 761 mmHg 48%
    04:00 +17°C° 0 mm 8 mps 762 mmHg 48%
    05:00 +17°C° 0 mm 8 mps 762 mmHg 48%
    06:00 +17°C° 0 mm 8 mps 762 mmHg 48%
    07:00 +17°C° 0 mm 8 mps 762 mmHg 47%
    08:00 +17°C° 0 mm 8 mps 763 mmHg 46%
    09:00 +18°C° 0 mm 8 mps 763 mmHg 45%
    10:00 +18°C° 0 mm 8 mps 763 mmHg 44%
    11:00 +20°C° 0 mm 7 mps 763 mmHg 42%
    12:00 +20°C° 0 mm 7 mps 762 mmHg 40%
    13:00 +20°C° 0 mm 8 mps 762 mmHg 42%
    14:00 +20°C° 0 mm 8 mps 762 mmHg 44%
    15:00 +18°C° 0 mm 8 mps 761 mmHg 46%
    16:00 +18°C° 0 mm 8 mps 762 mmHg 48%
    17:00 +17°C° 0 mm 8 mps 762 mmHg 50%
    18:00 +17°C° 0 mm 9 mps 762 mmHg 52%
    19:00 +17°C° 0 mm 8 mps 763 mmHg 52%
    20:00 +16°C° 0 mm 8 mps 763 mmHg 52%
    21:00 +16°C° 0 mm 8 mps 763 mmHg 51%
    22:00 +16°C° 0 mm 8 mps 763 mmHg 51%
    23:00 +16°C° 0 mm 8 mps 763 mmHg 51%

    20 January, Sunday

    Time Temperature Precipitation Wind Pressure Humidity
    00:00 +16°C° 0 mm 8 mps 763 mmHg 50%
    01:00 +16°C° 0 mm 8 mps 763 mmHg 49%
    02:00 +16°C° 0 mm 8 mps 763 mmHg 49%
    03:00 +15°C° 0 mm 9 mps 763 mmHg 48%
    04:00 +15°C° 0 mm 8 mps 763 mmHg 50%
    05:00 +15°C° 0 mm 8 mps 763 mmHg 51%
    06:00 +15°C° 0 mm 8 mps 764 mmHg 53%
    07:00 +16°C° 0 mm 8 mps 764 mmHg 52%
    08:00 +16°C° 0 mm 8 mps 764 mmHg 50%
    09:00 +17°C° 0 mm 8 mps 765 mmHg 49%
    10:00 +17°C° 0 mm 8 mps 764 mmHg 46%
    11:00 +18°C° 0 mm 8 mps 764 mmHg 43%
    12:00 +18°C° 0 mm 8 mps 764 mmHg 40%
    13:00 +18°C° 0 mm 8 mps 763 mmHg 39%
    14:00 +18°C° 0 mm 7 mps 763 mmHg 39%
    15:00 +18°C° 0 mm 7 mps 762 mmHg 38%
    16:00 +18°C° 0 mm 7 mps 762 mmHg 41%
    17:00 +18°C° 0 mm 7 mps 763 mmHg 44%
    18:00 +17°C° 0 mm 7 mps 763 mmHg 47%
    19:00 +17°C° 0 mm 7 mps 763 mmHg 48%
    20:00 +17°C° 0 mm 6 mps 763 mmHg 48%
    21:00 +17°C° 0 mm 6 mps 764 mmHg 49%
    22:00 +16°C° 0 mm 6 mps 763 mmHg 49%
    23:00 +16°C° 0 mm 6 mps 763 mmHg 49%

    21 January, Monday

    Time Temperature Precipitation Wind Pressure Humidity
    00:00 +16°C° 0 mm 7 mps 763 mmHg 49%
    01:00 +16°C° 0 mm 6 mps 763 mmHg 49%
    02:00 +16°C° 0 mm 6 mps 762 mmHg 49%
    03:00 +16°C° 0 mm 6 mps 762 mmHg 49%
    04:00 +16°C° 0 mm 6 mps 762 mmHg 50%
    05:00 +16°C° 0 mm 6 mps 762 mmHg 50%
    06:00 +16°C° 0 mm 6 mps 763 mmHg 51%
    07:00 +16°C° 0 mm 6 mps 763 mmHg 49%
    08:00 +17°C° 0 mm 6 mps 763 mmHg 47%
    09:00 +17°C° 0 mm 6 mps 764 mmHg 45%
    10:00 +19°C° 0 mm 5 mps 763 mmHg 44%
    11:00 +19°C° 0 mm 5 mps 762 mmHg 42%
    12:00 +20°C° 0 mm 5 mps 762 mmHg 40%
    13:00 +20°C° 0 mm 5 mps 761 mmHg 38%
    14:00 +20°C° 0 mm 5 mps 761 mmHg 37%
    15:00 +21°C° 0 mm 5 mps 760 mmHg 36%
    16:00 +20°C° 0 mm 5 mps 761 mmHg 38%
    17:00 +20°C° 0 mm 4 mps 761 mmHg 40%
    18:00 +20°C° 0 mm 4 mps 761 mmHg 41%
    19:00 +19°C° 0 mm 4 mps 761 mmHg 43%
    20:00 +19°C° 0 mm 4 mps 761 mmHg 44%
    21:00 +19°C° 0 mm 4 mps 761 mmHg 46%
    22:00 +18°C° 0 mm 4 mps 761 mmHg 47%
    23:00 +18°C° 0 mm 4 mps 761 mmHg 49%
    Show more